Fuel Prices

100LL: $3.96 (self-service)
100LL: $4.61 (full-service)
Jet-A: $3.43 (full-service)

Updated: October 25, 2016

Pilot Training

We offer pilot training from the basic private pilot course through ATP. We also provide aircraft rentals to qualified pilots looking for a place to fly.

Visit our school


Are you planning a stop in Merritt Island? Need a tie-down or hangar spot? Let us know ahead of time and we'll be awaiting your arrival.

Plan Your Stop

Located at the Merritt Island Airport (KCOI), Space Coast Aviation is the premier FBO for all of your needs. We’re the closest FBO to Cocoa Beach, Kennedy Space Center and Port Canaveral.

Swing by and enjoy our competitive fuel prices, refreshments, on-site maintenance, car rental services and much more.

Airport Information

Identifier: KCOI
Runway: 11 / 29
3601 X 75 ft
Surface: Asphalt

CTAF/UNICOM: 122.975
AWOS-3: 119.025
ORL APP: 132.65

Area Weather


KCOF 270958Z AUTO 09019G23KT 10SM CLR 25/19 A3013 RMK AO2 SLP207 T02460186 $

Titusville (KTIX) METAR:

KTIX 270055Z 07012KT 7SM SCT040 23/17 A3021 RMK LAST

Melbourne (KMLB) METAR:

KMLB 270953Z 08012G21KT 10SM BKN040 OVC050 24/19 A3013 RMK AO2 SLP202 T02440189

Hours of Operation

Mon: 7:00am - 8:00pm EST
Tue: 7:00am - 8:00pm EST
Wed: 7:00am - 8:00pm EST
Thu: 7:00am - 8:00pm EST
Fri: 7:00am - 8:00pm EST
Sat: 7:00am - 8:00pm EST
Sun: 7:00am - 8:00pm EST

Contact Us

Merritt Island Airport
900 Airport Road
Merritt Island, FL 32952

P: +1 (321) 453-2222